"FRM_SS3_TRK_CMP_EDR_2829.DAT   ",2006-03-25T19:59:09.10 ,"1/0091396745.35934",    0,    0,   40088,"SS3","B3","B2","B3","B2","PISd",0,2,0,1,"B2", 0,15,   1, 1,    0,"TRK","NO  REC","OK ","OK ",    000454.943,    -012.267,    -103.247,    0018.580,    0100.969
"FRM_SS3_TRK_CMP_EDR_2829.DAT   ",2006-03-25T19:59:10.55 ,"1/0091396747.00128",    0,    1,   40088,"SS3","B3","B2","B3","B2","PISd",0,2,0,1,"B2", 0,15,   1, 1,    0,"TRK","NO  REC","OK ","OK ",    000453.852,    -012.355,    -103.248,    0018.580,    0100.990
"FRM_SS3_TRK_CMP_EDR_2829.DAT   ",2006-03-25T19:59:12.00 ,"1/0091396748.29342",    0,    2,   40088,"SS3","B3","B2","B3","B2","PISd",0,2,0,1,"B2", 0,15,   1, 1,    0,"TRK","NO  REC","OK ","OK ",    000452.769,    -012.443,    -103.248,    0018.581,    0101.011
"FRM_SS3_TRK_CMP_EDR_2829.DAT   ",2006-03-25T19:59:13.44 ,"1/0091396749.58557",    0,    3,   40088,"SS3","B3","B2","B3","B2","PISd",0,2,0,1,"B2", 0,15,   1, 1,    0,"TRK","NO  REC","OK ","OK ",    000451.690,    -012.531,    -103.249,    0018.581,    0101.032
"FRM_SS3_TRK_CMP_EDR_2829.DAT   ",2006-03-25T19:59:14.89 ,"1/0091396751.22236",    0,    4,   40088,"SS3","B3","B2","B3","B2","PISd",0,2,0,1,"B2", 0,15,   1, 1,    0,"TRK","NO  REC","OK ","OK ",    000450.614,    -012.619,    -103.249,    0018.581,    0101.053
"FRM_SS3_TRK_CMP_EDR_2829.DAT   ",2006-03-25T19:59:16.33 ,"1/0091396752.51451",    0,    5,   40088,"SS3","B3","B2","B3","B2","PISd",0,2,0,1,"B2", 0,15,   1, 1,    0,"TRK","NO  REC","OK ","OK ",    000449.541,    -012.707,    -103.249,    0018.582,    0101.075
"FRM_SS3_TRK_CMP_EDR_2829.DAT   ",2006-03-25T19:59:17.77 ,"1/0091396754.14614",    0,    6,   40088,"SS3","B3","B2","B3","B2","PISd",0,2,0,1,"B2", 0,15,   1, 1,    0,"TRK","NO  REC","OK ","OK ",    000448.477,    -012.794,    -103.250,    0018.582,    0101.096
"FRM_SS3_TRK_CMP_EDR_2829.DAT   ",2006-03-25T19:59:19.21 ,"1/0091396755.43314",    0,    7,   40088,"SS3","B3","B2","B3","B2","PISd",0,2,0,1,"B2", 0,15,   1, 1,    0,"TRK","NO  REC","OK ","OK ",    000447.416,    -012.882,    -103.250,    0018.582,    0101.117
"FRM_SS3_TRK_CMP_EDR_2829.DAT   ",2006-03-25T19:59:20.65 ,"1/0091396757.06478",    0,    8,   40088,"SS3","B3","B2","B3","B2","PISd",0,2,0,1,"B2", 0,15,   1, 1,    0,"TRK","NO  REC","OK ","OK ",    000446.358,    -012.969,    -103.251,    0018.583,    0101.138
"FRM_SS3_TRK_CMP_EDR_2829.DAT   ",2006-03-25T19:59:22.09 ,"1/0091396758.35177",    0,    9,   40088,"SS3","B3","B2","B3","B2","PISd",0,2,0,1,"B2", 0,15,   1, 1,    0,"TRK","NO  REC","OK ","OK ",    000445.303,    -013.057,    -103.251,    0018.583,    0101.159
"FRM_SS3_TRK_CMP_EDR_2829.DAT   ",2006-03-25T19:59:23.52 ,"1/0091396759.63877",    0,   10,   40088,"SS3","B3","B2","B3","B2","PISd",0,2,0,1,"B2", 0,15,   1, 1,    0,"TRK","IEC  OK","OK ","OK ",    000444.251,    -013.145,    -103.251,    0018.584,    0101.180
"FRM_SS3_TRK_CMP_EDR_2829.DAT   ",2006-03-25T19:59:24.95 ,"1/0091396761.26526",    0,   11,   40088,"SS3","B3","B2","B3","B2","PISd",0,2,0,1,"B2", 0,15,   1, 1,    0,"TRK","NO  REC","OK ","OK ",    000443.208,    -013.232,    -103.252,    0018.584,    0101.200
"FRM_SS3_TRK_CMP_EDR_2829.DAT   ",2006-03-25T19:59:26.38 ,"1/0091396762.54711",    0,   12,   40088,"SS3","B3","B2","B3","B2","PISd",0,2,0,1,"B2", 0,15,   1, 1,    0,"TRK","NO  REC","OK ","OK ",    000442.169,    -013.320,    -103.252,    0018.584,    0101.221
"FRM_SS3_TRK_CMP_EDR_2829.DAT   ",2006-03-25T19:59:27.81 ,"1/0091396764.17360",    0,   13,   40088,"SS3","B3","B2","B3","B2","PISd",0,2,0,1,"B2", 0,15,   1, 1,    0,"TRK","NO  REC","OK ","OK ",    000441.132,    -013.407,    -103.252,    0018.585,    0101.242
"FRM_SS3_TRK_CMP_EDR_2829.DAT   ",2006-03-25T19:59:29.24 ,"1/0091396765.45544",    0,   14,   40088,"SS3","B3","B2","B3","B2","PISd",0,2,0,1,"B2", 0,15,   1, 1,    0,"TRK","NO  REC","OK ","OK ",    000440.098,    -013.495,    -103.253,    0018.585,    0101.263
"FRM_SS3_TRK_CMP_EDR_2829.DAT   ",2006-03-25T19:59:30.67 ,"1/0091396767.08193",    0,   15,   40088,"SS3","B3","B2","B3","B2","PISd",0,2,0,1,"B2", 0,15,   1, 1,    0,"TRK","NO  REC","OK ","OK ",    000439.068,    -013.582,    -103.253,    0018.585,    0101.284
"FRM_SS3_TRK_CMP_EDR_2829.DAT   ",2006-03-25T19:59:32.10 ,"1/0091396768.35863",    0,   16,   40088,"SS3","B3","B2","B3","B2","PISd",0,2,0,1,"B2", 0,15,   1, 1,    0,"TRK","NO  REC","OK ","OK ",    000438.046,    -013.669,    -103.254,    0018.586,    0101.304
"FRM_SS3_TRK_CMP_EDR_2829.DAT   ",2006-03-25T19:59:33.52 ,"1/0091396769.63533",    0,   17,   40088,"SS3","B3","B2","B3","B2","PISd",0,2,0,1,"B2", 0,15,   1, 1,    0,"TRK","NO  REC","OK ","OK ",    000437.027,    -013.756,    -103.254,    0018.586,    0101.325
"FRM_SS3_TRK_CMP_EDR_2829.DAT   ",2006-03-25T19:59:34.94 ,"1/0091396771.25667",    0,   18,   40088,"SS3","B3","B2","B3","B2","PISd",0,2,0,1,"B2", 0,15,   1, 1,    0,"TRK","NO  REC","OK ","OK ",    000436.012,    -013.843,    -103.254,    0018.586,    0101.345
"FRM_SS3_TRK_CMP_EDR_2829.DAT   ",2006-03-25T19:59:36.36 ,"1/0091396772.53336",    0,   19,   40088,"SS3","B3","B2","B3","B2","PISd",0,2,0,1,"B2", 0,15,   1, 1,    0,"TRK","NO  REC","OK ","OK ",    000434.999,    -013.931,    -103.254,    0018.587,    0101.366
"FRM_SS3_TRK_CMP_EDR_2829.DAT   ",2006-03-25T19:59:37.78 ,"1/0091396774.15470",    0,   20,   40088,"SS3","B3","B2","B3","B2","PISd",0,2,0,1,"B2", 0,15,   1, 1,    0,"TRK","NO  REC","OK ","OK ",    000433.990,    -014.018,    -103.255,    0018.587,    0101.387
"FRM_SS3_TRK_CMP_EDR_2829.DAT   ",2006-03-25T19:59:39.20 ,"1/0091396775.42625",    0,   21,   40088,"SS3","B3","B2","B3","B2","PISd",0,2,0,1,"B2", 0,15,   1, 1,    0,"TRK","NO  REC","OK ","OK ",    000432.989,    -014.105,    -103.255,    0018.587,    0101.407
"FRM_SS3_TRK_CMP_EDR_2829.DAT   ",2006-03-25T19:59:40.61 ,"1/0091396777.04244",    0,   22,   40088,"SS3","B3","B2","B3","B2","PISd",0,2,0,1,"B2", 0,15,   1, 1,    0,"TRK","NO  REC","OK ","OK ",    000431.991,    -014.192,    -103.255,    0018.588,    0101.428
"FRM_SS3_TRK_CMP_EDR_2829.DAT   ",2006-03-25T19:59:42.03 ,"1/0091396778.31399",    0,   23,   40088,"SS3","B3","B2","B3","B2","PISd",0,2,0,1,"B2", 0,15,   1, 1,    0,"TRK","NO  REC","OK ","OK ",    000430.996,    -014.279,    -103.256,    0018.588,    0101.448
"FRM_SS3_TRK_CMP_EDR_2829.DAT   ",2006-03-25T19:59:43.44 ,"1/0091396779.58554",    0,   24,   40088,"SS3","B3","B2","B3","B2","PISd",0,2,0,1,"B2", 0,15,   1, 1,    0,"TRK","NO  REC","OK ","OK ",    000430.005,    -014.366,    -103.256,    0018.589,    0101.468
"FRM_SS3_TRK_CMP_EDR_2829.DAT   ",2006-03-25T19:59:44.86 ,"1/0091396781.20173",    0,   25,   40088,"SS3","B3","B2","B3","B2","PISd",0,2,0,1,"B2", 0,15,   1, 1,    0,"TRK","NO  REC","OK ","OK ",    000429.016,    -014.453,    -103.256,    0018.589,    0101.489
"FRM_SS3_TRK_CMP_EDR_2829.DAT   ",2006-03-25T19:59:46.26 ,"1/0091396782.46813",    0,   26,   40088,"SS3","B3","B2","B3","B2","PISd",0,2,0,1,"B2", 0,15,   1, 1,    0,"TRK","NO  REC","OK ","OK ",    000428.036,    -014.539,    -103.256,    0018.589,    0101.509
"FRM_SS3_TRK_CMP_EDR_2829.DAT   ",2006-03-25T19:59:47.67 ,"1/0091396784.07917",    0,   27,   40088,"SS3","B3","B2","B3","B2","PISd",0,2,0,1,"B2", 0,15,   1, 1,    0,"TRK","NO  REC","OK ","OK ",    000427.059,    -014.626,    -103.257,    0018.590,    0101.529
"FRM_SS3_TRK_CMP_EDR_2829.DAT   ",2006-03-25T19:59:49.08 ,"1/0091396785.34557",    0,   28,   40088,"SS3","B3","B2","B3","B2","PISd",0,2,0,1,"B2", 0,15,   1, 1,    0,"TRK","NO  REC","OK ","OK ",    000426.085,    -014.712,    -103.257,    0018.590,    0101.550
"FRM_SS3_TRK_CMP_EDR_2829.DAT   ",2006-03-25T19:59:50.48 ,"1/0091396786.61196",    0,   29,   40088,"SS3","B3","B2","B3","B2","PISd",0,2,0,1,"B2", 0,15,   1, 1,    0,"TRK","NO  REC","OK ","OK ",    000425.114,    -014.799,    -103.257,    0018.591,    0101.570
"FRM_SS3_TRK_CMP_EDR_2829.DAT   ",2006-03-25T19:59:51.89 ,"1/0091396788.22300",    0,   30,   40088,"SS3","B3","B2","B3","B2","PISd",0,2,0,1,"B2", 0,15,   1, 1,    0,"TRK","NO  REC","OK ","OK ",    000424.146,    -014.886,    -103.257,    0018.591,    0101.590
"FRM_SS3_TRK_CMP_EDR_2829.DAT   ",2006-03-25T19:59:53.29 ,"1/0091396789.48425",    0,   31,   40088,"SS3","B3","B2","B3","B2","PISd",0,2,0,1,"B2", 0,15,   1, 1,    0,"TRK","NO  REC","OK ","OK ",    000423.187,    -014.972,    -103.258,    0018.591,    0101.610
"FRM_SS3_TRK_CMP_EDR_2829.DAT   ",2006-03-25T19:59:54.69 ,"1/0091396791.09014",    0,   32,   40088,"SS3","B3","B2","B3","B2","PISd",0,2,0,1,"B2", 0,15,   1, 1,    0,"TRK","NO  REC","OK ","OK ",    000422.231,    -015.059,    -103.258,    0018.592,    0101.630
"FRM_SS3_TRK_CMP_EDR_2829.DAT   ",2006-03-25T19:59:56.08 ,"1/0091396792.35139",    0,   33,   40088,"SS3","B3","B2","B3","B2","PISd",0,2,0,1,"B2", 0,15,   1, 1,    0,"TRK","NO  REC","OK ","OK ",    000421.277,    -015.145,    -103.258,    0018.592,    0101.650
"FRM_SS3_TRK_CMP_EDR_2829.DAT   ",2006-03-25T19:59:57.48 ,"1/0091396793.61264",    0,   34,   40088,"SS3","B3","B2","B3","B2","PISd",0,2,0,1,"B2", 0,15,   1, 1,    0,"TRK","NO  REC","OK ","OK ",    000420.327,    -015.232,    -103.258,    0018.592,    0101.670
"FRM_SS3_TRK_CMP_EDR_2829.DAT   ",2006-03-25T19:59:58.88 ,"1/0091396795.21853",    0,   35,   40088,"SS3","B3","B2","B3","B2","PISd",0,2,0,1,"B2", 0,15,   1, 1,    0,"TRK","NO  REC","OK ","OK ",    000419.380,    -015.318,    -103.258,    0018.593,    0101.690
"FRM_SS3_TRK_CMP_EDR_2829.DAT   ",2006-03-25T20:00:00.27 ,"1/0091396796.47463",    0,   36,   40088,"SS3","B3","B2","B3","B2","PISd",0,2,0,1,"B2", 0,15,   1, 1,    0,"TRK","NO  REC","OK ","OK ",    000418.441,    -015.404,    -103.259,    0018.593,    0101.710
"FRM_SS3_TRK_CMP_EDR_2829.DAT   ",2006-03-25T20:00:01.66 ,"1/0091396798.07537",    0,   37,   40088,"SS3","B3","B2","B3","B2","PISd",0,2,0,1,"B2", 0,15,   1, 1,    0,"TRK","NO  REC","OK ","OK ",    000417.505,    -015.490,    -103.259,    0018.593,    0101.730
"FRM_SS3_TRK_CMP_EDR_2829.DAT   ",2006-03-25T20:00:03.05 ,"1/0091396799.33147",    0,   38,   40088,"SS3","B3","B2","B3","B2","PISd",0,2,0,1,"B2", 0,15,   1, 1,    0,"TRK","NO  REC","OK ","OK ",    000416.572,    -015.576,    -103.259,    0018.594,    0101.750
"FRM_SS3_TRK_CMP_EDR_2829.DAT   ",2006-03-25T20:00:04.44 ,"1/0091396800.58758",    0,   39,   40088,"SS3","B3","B2","B3","B2","PISd",0,2,0,1,"B2", 0,15,   1, 1,    0,"TRK","NO  REC","OK ","OK ",    000415.642,    -015.662,    -103.259,    0018.594,    0101.770
"FRM_SS3_TRK_CMP_EDR_2829.DAT   ",2006-03-25T20:00:05.84 ,"1/0091396802.18832",    0,   40,   40088,"SS3","B3","B2","B3","B2","PISd",0,2,0,1,"B2", 0,15,   1, 1,    0,"TRK","NO  REC","OK ","OK ",    000414.715,    -015.749,    -103.259,    0018.594,    0101.789
"FRM_SS3_TRK_CMP_EDR_2829.DAT   ",2006-03-25T20:00:07.22 ,"1/0091396803.43927",    0,   41,   40088,"SS3","B3","B2","B3","B2","PISd",0,2,0,1,"B2", 0,15,   1, 1,    0,"TRK","NO  REC","OK ","OK ",    000413.796,    -015.834,    -103.259,    0018.595,    0101.809
"FRM_SS3_TRK_CMP_EDR_2829.DAT   ",2006-03-25T20:00:08.60 ,"1/0091396805.03486",    0,   42,   40088,"SS3","B3","B2","B3","B2","PISd",0,2,0,1,"B2", 0,15,   1, 1,    0,"TRK","NO  REC","OK ","OK ",    000412.881,    -015.920,    -103.260,    0018.595,    0101.829
"FRM_SS3_TRK_CMP_EDR_2829.DAT   ",2006-03-25T20:00:09.98 ,"1/0091396806.28581",    0,   43,   40088,"SS3","B3","B2","B3","B2","PISd",0,2,0,1,"B2", 0,15,   1, 1,    0,"TRK","NO  REC","OK ","OK ",    000411.968,    -016.006,    -103.260,    0018.596,    0101.848
"FRM_SS3_TRK_CMP_EDR_2829.DAT   ",2006-03-25T20:00:11.37 ,"1/0091396807.53676",    0,   44,   40088,"SS3","B3","B2","B3","B2","PISd",0,2,0,1,"B2", 0,15,   1, 1,    0,"TRK","NO  REC","OK ","OK ",    000411.059,    -016.092,    -103.260,    0018.596,    0101.868
"FRM_SS3_TRK_CMP_EDR_2829.DAT   ",2006-03-25T20:00:12.75 ,"1/0091396809.13235",    0,   45,   40088,"SS3","B3","B2","B3","B2","PISd",0,2,0,1,"B2", 0,15,   1, 1,    0,"TRK","NO  REC","OK ","OK ",    000410.152,    -016.178,    -103.260,    0018.596,    0101.888
"FRM_SS3_TRK_CMP_EDR_2829.DAT   ",2006-03-25T20:00:14.13 ,"1/0091396810.38330",    0,   46,   40088,"SS3","B3","B2","B3","B2","PISd",0,2,0,1,"B2", 0,15,   1, 1,    0,"TRK","NO  REC","OK ","OK ",    000409.248,    -016.264,    -103.260,    0018.597,    0101.907
"FRM_SS3_TRK_CMP_EDR_2829.DAT   ",2006-03-25T20:00:15.51 ,"1/0091396811.62910",    0,   47,   40088,"SS3","B3","B2","B3","B2","PISd",0,2,0,1,"B2", 0,15,   1, 1,    0,"TRK","NO  REC","OK ","OK ",    000408.353,    -016.350,    -103.260,    0018.597,    0101.927
"FRM_SS3_TRK_CMP_EDR_2829.DAT   ",2006-03-25T20:00:16.88 ,"1/0091396813.21954",    0,   48,   40088,"SS3","B3","B2","B3","B2","PISd",0,2,0,1,"B2", 0,15,   1, 1,    0,"TRK","NO  REC","OK ","OK ",    000407.460,    -016.435,    -103.260,    0018.598,    0101.946
"FRM_SS3_TRK_CMP_EDR_2829.DAT   ",2006-03-25T20:00:18.26 ,"1/0091396814.46535",    0,   49,   40088,"SS3","B3","B2","B3","B2","PISd",0,2,0,1,"B2", 0,15,   1, 1,    0,"TRK","NO  REC","OK ","OK ",    000406.571,    -016.521,    -103.260,    0018.598,    0101.966
"FRM_SS3_TRK_CMP_EDR_2829.DAT   ",2006-03-25T20:00:19.63 ,"1/0091396816.05579",    0,   50,   40088,"SS3","B3","B2","B3","B2","PISd",0,2,0,1,"B2", 0,15,   1, 1,    0,"TRK","NO  REC","OK ","OK ",    000405.684,    -016.606,    -103.260,    0018.598,    0101.985
"FRM_SS3_TRK_CMP_EDR_2829.DAT   ",2006-03-25T20:00:21.01 ,"1/0091396817.30159",    0,   51,   40088,"SS3","B3","B2","B3","B2","PISd",0,2,0,1,"B2", 0,15,   1, 1,    0,"TRK","NO  REC","OK ","OK ",    000404.801,    -016.692,    -103.260,    0018.599,    0102.004
"FRM_SS3_TRK_CMP_EDR_2829.DAT   ",2006-03-25T20:00:22.38 ,"1/0091396818.54224",    0,   52,   40088,"SS3","B3","B2","B3","B2","PISd",0,2,0,1,"B2", 0,15,   1, 1,    0,"TRK","NO  REC","OK ","OK ",    000403.925,    -016.777,    -103.260,    0018.599,    0102.024
"FRM_SS3_TRK_CMP_EDR_2829.DAT   ",2006-03-25T20:00:23.74 ,"1/0091396820.12753",    0,   53,   40088,"SS3","B3","B2","B3","B2","PISd",0,2,0,1,"B2", 0,15,   1, 1,    0,"TRK","NO  REC","OK ","OK ",    000403.053,    -016.863,    -103.261,    0018.599,    0102.043
"FRM_SS3_TRK_CMP_EDR_2829.DAT   ",2006-03-25T20:00:25.11 ,"1/0091396821.36818",    0,   54,   40088,"SS3","B3","B2","B3","B2","PISd",0,2,0,1,"B2", 0,15,   1, 1,    0,"TRK","NO  REC","OK ","OK ",    000402.183,    -016.948,    -103.261,    0018.600,    0102.062
"FRM_SS3_TRK_CMP_EDR_2829.DAT   ",2006-03-25T20:00:26.48 ,"1/0091396822.60884",    0,   55,   40088,"SS3","B3","B2","B3","B2","PISd",0,2,0,1,"B2", 0,15,   1, 1,    0,"TRK","NO  REC","OK ","OK ",    000401.316,    -017.033,    -103.261,    0018.600,    0102.081
"FRM_SS3_TRK_CMP_EDR_2829.DAT   ",2006-03-25T20:00:27.84 ,"1/0091396824.19413",    0,   56,   40088,"SS3","B3","B2","B3","B2","PISd",0,2,0,1,"B2", 0,15,   1, 1,    0,"TRK","NO  REC","OK ","OK ",    000400.453,    -017.119,    -103.261,    0018.600,    0102.101
"FRM_SS3_TRK_CMP_EDR_2829.DAT   ",2006-03-25T20:00:29.21 ,"1/0091396825.43478",    0,   57,   40088,"SS3","B3","B2","B3","B2","PISd",0,2,0,1,"B2", 0,15,   1, 1,    0,"TRK","NO  REC","OK ","OK ",    000399.592,    -017.204,    -103.261,    0018.601,    0102.120
"FRM_SS3_TRK_CMP_EDR_2829.DAT   ",2006-03-25T20:00:30.57 ,"1/0091396827.01492",    0,   58,   40088,"SS3","B3","B2","B3","B2","PISd",0,2,0,1,"B2", 0,15,   1, 1,    0,"TRK","NO  REC","OK ","OK ",    000398.739,    -017.289,    -103.261,    0018.601,    0102.139
"FRM_SS3_TRK_CMP_EDR_2829.DAT   ",2006-03-25T20:00:31.93 ,"1/0091396828.25042",    0,   59,   40088,"SS3","B3","B2","B3","B2","PISd",0,2,0,1,"B2", 0,15,   1, 1,    0,"TRK","NO  REC","OK ","OK ",    000397.889,    -017.374,    -103.261,    0018.601,    0102.158
"FRM_SS3_TRK_CMP_EDR_2829.DAT   ",2006-03-25T20:00:33.29 ,"1/0091396829.48593",    0,   60,   40088,"SS3","B3","B2","B3","B2","PISd",0,2,0,1,"B2", 0,15,   1, 1,    0,"TRK","NO  REC","OK ","OK ",    000397.043,    -017.459,    -103.261,    0018.602,    0102.177
"FRM_SS3_TRK_CMP_EDR_2829.DAT   ",2006-03-25T20:00:34.65 ,"1/0091396831.06607",    0,   61,   40088,"SS3","B3","B2","B3","B2","PISd",0,2,0,1,"B2", 0,15,   1, 1,    0,"TRK","NO  REC","OK ","OK ",    000396.199,    -017.544,    -103.261,    0018.602,    0102.196
"FRM_SS3_TRK_CMP_EDR_2829.DAT   ",2006-03-25T20:00:36.01 ,"1/0091396832.30157",    0,   62,   40088,"SS3","B3","B2","B3","B2","PISd",0,2,0,1,"B2", 0,15,   1, 1,    0,"TRK","NO  REC","OK ","OK ",    000395.358,    -017.630,    -103.261,    0018.602,    0102.215
"FRM_SS3_TRK_CMP_EDR_2829.DAT   ",2006-03-25T20:00:37.36 ,"1/0091396833.53192",    0,   63,   40088,"SS3","B3","B2","B3","B2","PISd",0,2,0,1,"B2", 0,15,   1, 1,    0,"TRK","NO  REC","OK ","OK ",    000394.525,    -017.714,    -103.261,    0018.603,    0102.234
"FRM_SS3_TRK_CMP_EDR_2829.DAT   ",2006-03-25T20:00:38.71 ,"1/0091396835.10692",    0,   64,   40088,"SS3","B3","B2","B3","B2","PISd",0,2,0,1,"B2", 0,15,   1, 1,    0,"TRK","NO  REC","OK ","OK ",    000393.694,    -017.799,    -103.261,    0018.603,    0102.252
"FRM_SS3_TRK_CMP_EDR_2829.DAT   ",2006-03-25T20:00:40.06 ,"1/0091396836.33727",    0,   65,   40088,"SS3","B3","B2","B3","B2","PISd",0,2,0,1,"B2", 0,15,   1, 1,    0,"TRK","NO  REC","OK ","OK ",    000392.867,    -017.884,    -103.261,    0018.604,    0102.271
"FRM_SS3_TRK_CMP_EDR_2829.DAT   ",2006-03-25T20:00:41.41 ,"1/0091396837.56762",    0,   66,   40088,"SS3","B3","B2","B3","B2","PISd",0,2,0,1,"B2", 0,15,   1, 1,    0,"TRK","NO  REC","OK ","OK ",    000392.043,    -017.969,    -103.261,    0018.604,    0102.290
"FRM_SS3_TRK_CMP_EDR_2829.DAT   ",2006-03-25T20:00:42.77 ,"1/0091396839.14262",    0,   67,   40088,"SS3","B3","B2","B3","B2","PISd",0,2,0,1,"B2", 0,15,   1, 1,    0,"TRK","NO  REC","OK ","OK ",    000391.221,    -018.053,    -103.260,    0018.604,    0102.309
"FRM_SS3_TRK_CMP_EDR_2829.DAT   ",2006-03-25T20:00:44.12 ,"1/0091396840.37297",    0,   68,   40088,"SS3","B3","B2","B3","B2","PISd",0,2,0,1,"B2", 0,15,   1, 1,    0,"TRK","NO  REC","OK ","OK ",    000390.403,    -018.138,    -103.260,    0018.605,    0102.328
"FRM_SS3_TRK_CMP_EDR_2829.DAT   ",2006-03-25T20:00:45.46 ,"1/0091396841.59817",    0,   69,   40088,"SS3","B3","B2","B3","B2","PISd",0,2,0,1,"B2", 0,15,   1, 1,    0,"TRK","NO  REC","OK ","OK ",    000389.592,    -018.223,    -103.260,    0018.605,    0102.346
"FRM_SS3_TRK_CMP_EDR_2829.DAT   ",2006-03-25T20:00:46.80 ,"1/0091396843.16802",    0,   70,   40088,"SS3","B3","B2","B3","B2","PISd",0,2,0,1,"B2", 0,15,   1, 1,    0,"TRK","NO  REC","OK ","OK ",    000388.784,    -018.307,    -103.260,    0018.606,    0102.365
"FRM_SS3_TRK_CMP_EDR_2829.DAT   ",2006-03-25T20:00:48.15 ,"1/0091396844.39322",    0,   71,   40088,"SS3","B3","B2","B3","B2","PISd",0,2,0,1,"B2", 0,15,   1, 1,    0,"TRK","NO  REC","OK ","OK ",    000387.979,    -018.392,    -103.260,    0018.606,    0102.383
"FRM_SS3_TRK_CMP_EDR_2829.DAT   ",2006-03-25T20:00:49.49 ,"1/0091396845.61842",    0,   72,   40088,"SS3","B3","B2","B3","B2","PISd",0,2,0,1,"B2", 0,15,   1, 1,    0,"TRK","NO  REC","OK ","OK ",    000387.177,    -018.476,    -103.260,    0018.606,    0102.402
"FRM_SS3_TRK_CMP_EDR_2829.DAT   ",2006-03-25T20:00:50.84 ,"1/0091396847.18827",    0,   73,   40088,"SS3","B3","B2","B3","B2","PISd",0,2,0,1,"B2", 0,15,   1, 1,    0,"TRK","NO  REC","OK ","OK ",    000386.378,    -018.561,    -103.260,    0018.607,    0102.421
"FRM_SS3_TRK_CMP_EDR_2829.DAT   ",2006-03-25T20:00:52.18 ,"1/0091396848.41347",    0,   74,   40088,"SS3","B3","B2","B3","B2","PISd",0,2,0,1,"B2", 0,15,   1, 1,    0,"TRK","NO  REC","OK ","OK ",    000385.582,    -018.645,    -103.260,    0018.607,    0102.439
"FRM_SS3_TRK_CMP_EDR_2829.DAT   ",2006-03-25T20:00:53.51 ,"1/0091396849.63352",    0,   75,   40088,"SS3","B3","B2","B3","B2","PISd",0,2,0,1,"B2", 0,15,   1, 1,    0,"TRK","NO  REC","OK ","OK ",    000384.793,    -018.730,    -103.260,    0018.607,    0102.458
"FRM_SS3_TRK_CMP_EDR_2829.DAT   ",2006-03-25T20:00:54.85 ,"1/0091396851.19822",    0,   76,   40088,"SS3","B3","B2","B3","B2","PISd",0,2,0,1,"B2", 0,15,   1, 1,    0,"TRK","NO  REC","OK ","OK ",    000384.007,    -018.814,    -103.260,    0018.608,    0102.476
"FRM_SS3_TRK_CMP_EDR_2829.DAT   ",2006-03-25T20:00:56.19 ,"1/0091396852.41827",    0,   77,   40088,"SS3","B3","B2","B3","B2","PISd",0,2,0,1,"B2", 0,15,   1, 1,    0,"TRK","NO  REC","OK ","OK ",    000383.225,    -018.898,    -103.260,    0018.608,    0102.494
"FRM_SS3_TRK_CMP_EDR_2829.DAT   ",2006-03-25T20:00:57.52 ,"1/0091396853.63833",    0,   78,   40088,"SS3","B3","B2","B3","B2","PISd",0,2,0,1,"B2", 0,15,   1, 1,    0,"TRK","NO  REC","OK ","OK ",    000382.445,    -018.982,    -103.259,    0018.608,    0102.513
"FRM_SS3_TRK_CMP_EDR_2829.DAT   ",2006-03-25T20:00:58.86 ,"1/0091396855.20302",    0,   79,   40088,"SS3","B3","B2","B3","B2","PISd",0,2,0,1,"B2", 0,15,   1, 1,    0,"TRK","NO  REC","OK ","OK ",    000381.668,    -019.066,    -103.259,    0018.609,    0102.531
"FRM_SS3_TRK_CMP_EDR_2829.DAT   ",2006-03-25T20:01:00.19 ,"1/0091396856.42307",    0,   80,   40088,"SS3","B3","B2","B3","B2","PISd",0,2,0,1,"B2", 0,15,   1, 1,    0,"TRK","NO  REC","OK ","OK ",    000380.894,    -019.151,    -103.259,    0018.609,    0102.549
"FRM_SS3_TRK_CMP_EDR_2829.DAT   ",2006-03-25T20:01:01.52 ,"1/0091396857.63798",    0,   81,   40088,"SS3","B3","B2","B3","B2","PISd",0,2,0,1,"B2", 0,15,   1, 1,    0,"TRK","NO  REC","OK ","OK ",    000380.127,    -019.235,    -103.259,    0018.609,    0102.567
"FRM_SS3_TRK_CMP_EDR_2829.DAT   ",2006-03-25T20:01:02.85 ,"1/0091396859.19752",    0,   82,   40088,"SS3","B3","B2","B3","B2","PISd",0,2,0,1,"B2", 0,15,   1, 1,    0,"TRK","NO  REC","OK ","OK ",    000379.363,    -019.319,    -103.259,    0018.610,    0102.586
"FRM_SS3_TRK_CMP_EDR_2829.DAT   ",2006-03-25T20:01:04.18 ,"1/0091396860.41243",    0,   83,   40088,"SS3","B3","B2","B3","B2","PISd",0,2,0,1,"B2", 0,15,   1, 1,    0,"TRK","NO  REC","OK ","OK ",    000378.602,    -019.402,    -103.259,    0018.610,    0102.604
"FRM_SS3_TRK_CMP_EDR_2829.DAT   ",2006-03-25T20:01:05.51 ,"1/0091396861.62733",    0,   84,   40088,"SS3","B3","B2","B3","B2","PISd",0,2,0,1,"B2", 0,15,   1, 1,    0,"TRK","NO  REC","OK ","OK ",    000377.844,    -019.486,    -103.258,    0018.611,    0102.622
"FRM_SS3_TRK_CMP_EDR_2829.DAT   ",2006-03-25T20:01:06.83 ,"1/0091396863.18687",    0,   85,   40088,"SS3","B3","B2","B3","B2","PISd",0,2,0,1,"B2", 0,15,   1, 1,    0,"TRK","NO  REC","OK ","OK ",    000377.089,    -019.570,    -103.258,    0018.611,    0102.640
"FRM_SS3_TRK_CMP_EDR_2829.DAT   ",2006-03-25T20:01:08.16 ,"1/0091396864.40178",    0,   86,   40088,"SS3","B3","B2","B3","B2","PISd",0,2,0,1,"B2", 0,15,   1, 1,    0,"TRK","NO  REC","OK ","OK ",    000376.337,    -019.654,    -103.258,    0018.611,    0102.658
"FRM_SS3_TRK_CMP_EDR_2829.DAT   ",2006-03-25T20:01:09.49 ,"1/0091396865.61668",    0,   87,   40088,"SS3","B3","B2","B3","B2","PISd",0,2,0,1,"B2", 0,15,   1, 1,    0,"TRK","NO  REC","OK ","OK ",    000375.588,    -019.739,    -103.258,    0018.612,    0102.676
"FRM_SS3_TRK_CMP_EDR_2829.DAT   ",2006-03-25T20:01:10.81 ,"1/0091396867.17108",    0,   88,   40088,"SS3","B3","B2","B3","B2","PISd",0,2,0,1,"B2", 0,15,   1, 1,    0,"TRK","NO  REC","OK ","OK ",    000374.846,    -019.822,    -103.258,    0018.612,    0102.694
"FRM_SS3_TRK_CMP_EDR_2829.DAT   ",2006-03-25T20:01:12.13 ,"1/0091396868.38083",    0,   89,   40088,"SS3","B3","B2","B3","B2","PISd",0,2,0,1,"B2", 0,15,   1, 1,    0,"TRK","NO  REC","OK ","OK ",    000374.106,    -019.906,    -103.257,    0018.613,    0102.712
"FRM_SS3_TRK_CMP_EDR_2829.DAT   ",2006-03-25T20:01:13.45 ,"1/0091396869.59059",    0,   90,   40088,"SS3","B3","B2","B3","B2","PISd",0,2,0,1,"B2", 0,15,   1, 1,    0,"TRK","NO  REC","OK ","OK ",    000373.370,    -019.989,    -103.257,    0018.613,    0102.730